Weather History for CYAM - November, 2012

Change the Weather History Date:

Friday, November 2, 2012

  Actual Average Record
Temperature  
Mean Temperature 34 °F -  
Max Temperature 38 °F 39 °F 59 °F (2000)
Min Temperature 30 °F 26 °F 12 °F (1996)
Degree Days  
Heating Degree Days 31    
Moisture  
Dew Point 25 °F    
Average Humidity 70    
Maximum Humidity 86    
Minimum Humidity 53    
Precipitation  
Precipitation 0.00 in 0.12 in - ()
Sea Level Pressure  
Sea Level Pressure 29.98 in    
Wind  
Wind Speed 12 mph ()    
Max Wind Speed 21 mph    
Max Gust Speed 28 mph    
Visibility 14.6 miles    
Events Snow    
Averages and records for this station are not official NWS values.
T = Trace of Precipitation, MM = Missing Value Source: Averaged Metar Reports

Daily Weather History Graph

Daily Weather History Graph

Search for Another Location

Airport or City:

Trip Planner

Search our weather history database for the weather conditions in past years. The results will help you decide how hot, cold, wet, or windy it might be!

Date:

Astronomy

Nov. 02, 2012 Rise Set
Actual Time 8:21 AM EDT 6:20 PM EDT
Civil Twilight 7:50 AM EDT 6:52 PM EDT
Nautical Twilight 7:14 AM EDT 7:28 PM EDT
Astronomical Twilight 6:39 AM EDT 8:03 PM EDT
Moon 8:59 PM EDT (11/2) 11:49 AM EDT (11/2)
Length of Visible Light 11h 02m
Length of Day
9h 58m
Waning Gibbous, 87% of the Moon is Illuminated
Nov 2
Waning Gibbous
Nov 6
Last Quarter
Nov 13
New
Nov 20
First Quarter
Nov 28
Full

Hourly Weather History & Observations

Time (EDT) Temp. Windchill Dew Point Humidity Pressure Visibility Wind Dir Wind Speed Gust Speed Precip Events Conditions
12:00 AM 32.0 °F 22.5 °F 26.6 °F 80% 29.82 in 12.0 mi North 12.7 mph 23.0 mph N/A Snow Light Snow Showers
1:00 AM 32.0 °F 22.1 °F 26.6 °F 80% 29.83 in 15.0 mi NNW 13.8 mph 21.9 mph N/A Snow Light Snow Showers
2:00 AM 31 °F - 26 °F 76% 29.85 in 12 mi North 12.7 mph - -  
2:00 AM 30.2 °F 20.2 °F 26.6 °F 86% 29.85 in 12.0 mi North 12.7 mph 19.6 mph N/A Snow Light Snow Showers
3:00 AM 32.0 °F 24.2 °F 24.8 °F 75% 29.86 in 12.0 mi NNW 9.2 mph - N/A Snow Light Snow Showers
4:00 AM 32.0 °F 20.1 °F 24.8 °F 75% 29.87 in 15.0 mi North 19.6 mph 26.5 mph N/A Snow Light Snow Showers
5:00 AM 32.0 °F 21.2 °F 24.8 °F 75% 29.88 in 15.0 mi North 16.1 mph 21.9 mph N/A   Overcast
6:00 AM 32.0 °F 19.8 °F 24.8 °F 75% 29.89 in 15.0 mi NNW 20.7 mph - N/A   Overcast
7:00 AM 32.0 °F 20.1 °F 23.0 °F 69% 29.91 in 15.0 mi North 19.6 mph 26.5 mph N/A   Overcast
8:00 AM 32 °F - 24 °F 62% 29.93 in 15 mi North 13.8 mph - -  
8:00 AM 32.0 °F 21.6 °F 24.8 °F 75% 29.93 in 15.0 mi North 15.0 mph 20.7 mph N/A   Mostly Cloudy
9:00 AM 32.0 °F 23.6 °F 24.8 °F 75% 29.95 in 15.0 mi North 10.4 mph 19.6 mph N/A   Mostly Cloudy
10:00 AM 33.8 °F 25.3 °F 24.8 °F 70% 29.97 in 15.0 mi North 11.5 mph 20.7 mph N/A   Mostly Cloudy
11:00 AM 35.6 °F 25.2 °F 24.8 °F 65% 29.99 in 15.0 mi North 18.4 mph 26.5 mph N/A   Overcast
12:00 PM 35.6 °F 25.5 °F 24.8 °F 65% 30.00 in 15.0 mi North 17.3 mph 24.2 mph N/A   Mostly Cloudy
12:29 PM 35.6 °F 25.2 °F 24.8 °F 65% 30.01 in 15.0 mi North 18.4 mph 25.3 mph N/A   Overcast
12:48 PM 35.6 °F 25.9 °F 26.6 °F 70% 30.01 in 15.0 mi North 16.1 mph 23.0 mph N/A   Overcast
1:00 PM 35.6 °F 26.2 °F 26.6 °F 70% 30.01 in 15.0 mi NNW 15.0 mph 21.9 mph N/A   Overcast
2:00 PM 37 °F - 26 °F 53% 30.01 in 15 mi North 13.8 mph - -   Overcast
2:00 PM 37.4 °F 28.2 °F 26.6 °F 65% 30.01 in 15.0 mi North 16.1 mph - N/A   Overcast
3:00 PM 37.4 °F 28.9 °F 26.6 °F 65% 30.03 in 15.0 mi NNW 13.8 mph 23.0 mph N/A   Overcast
4:00 PM 37.4 °F 28.2 °F 26.6 °F 65% 30.04 in 15.0 mi North 16.1 mph 27.6 mph N/A   Mostly Cloudy
5:00 PM 37.4 °F 30.3 °F 26.6 °F 65% 30.06 in 15.0 mi North 10.4 mph 19.6 mph N/A   Overcast
6:00 PM 35.6 °F 29.2 °F 26.6 °F 70% 30.07 in 15.0 mi North 8.1 mph - N/A   Overcast
7:00 PM 35.6 °F 27.5 °F 24.8 °F 65% 30.09 in 15.0 mi NNW 11.5 mph - N/A   Overcast
8:00 PM 34 °F - 25 °F 60% 30.12 in 15 mi North 8.1 mph - -  
8:00 PM 33.8 °F 26.4 °F 24.8 °F 70% 30.11 in 15.0 mi North 9.2 mph - N/A   Mostly Cloudy
9:00 PM 33.8 °F 24.8 °F 24.8 °F 70% 30.12 in 15.0 mi North 12.7 mph - N/A   Mostly Cloudy
10:00 PM 33.8 °F 25.3 °F 24.8 °F 70% 30.14 in 15.0 mi NNW 11.5 mph - N/A   Overcast
11:00 PM 32.0 °F 24.2 °F 24.8 °F 75% 30.16 in 15.0 mi NNW 9.2 mph 19.6 mph N/A   Mostly Cloudy